Location: Zagreb
(45.8000°N, 16.0000°E)
Time: 09:31:37
(UTC+01:00)

S-56A Canister/Altair - Visible Passes

Search period start: 23 January 2020 00:00
Search period end: 02 February 2020 00:00
Orbit: 634 x 2498 km, 38.9° (Epoch: 22 January)

Date Brightness Start Highest point End Pass type
(mag) Time Alt. Az. Time Alt. Az. Time Alt. Az.
23 Jan 10.0 18:48:13 10° SSE 18:49:22 10° SSE 18:49:56 10° SE visible
24 Jan 10.0 20:15:01 10° SW 20:16:41 16° SSW 20:16:41 16° SSW visible
25 Jan 9.5 19:42:06 10° SW 19:45:58 23° S 19:45:58 23° S visible
26 Jan 9.2 19:09:09 10° SSW 19:14:52 24° SSE 19:15:15 24° SSE visible
27 Jan 9.3 18:36:09 10° SSW 18:42:13 24° SSE 18:44:29 20° SE visible
27 Jan 10.0 20:39:44 10° WSW 20:41:55 19° SW 20:41:55 19° SW visible
28 Jan 9.6 18:03:07 10° SSW 18:09:30 23° SSE 18:13:43 13° ESE visible
28 Jan 9.2 20:06:38 10° WSW 20:11:08 31° SSW 20:11:08 31° SSW visible
29 Jan 9.9 17:30:06 10° SSW 17:36:46 22° SSE 17:41:51 10° ESE visible
29 Jan 8.7 19:33:28 10° WSW 19:40:21 39° S 19:40:21 39° S visible
30 Jan 8.7 19:00:14 10° SW 19:07:48 39° S 19:09:32 33° SE visible
30 Jan 10.2 21:05:12 10° WSW 21:06:58 17° WSW 21:06:58 17° WSW visible
31 Jan 9.1 18:26:56 10° SW 18:35:05 39° SSE 18:38:43 22° ESE visible
31 Jan 9.4 20:32:01 10° WSW 20:36:08 30° SW 20:36:08 30° SW visible
01 Feb 9.4 17:53:36 10° SW 18:02:20 38° SSE 18:07:53 12° E visible
01 Feb 8.7 19:58:45 10° WSW 20:05:19 44° SSW 20:05:19 44° SSW visible
